AEROCUBE 4.5A

Last updated on Tue Jul 01 2025 00:03:44 GMT+0000 (Coordinated Universal Time)

1 38767U 12048K 25181.32640738 .00018077 00000+0 46942-3 0 9996 2 38767 64.6464 156.1871 0098341 270.4438 88.5426 15.34209654318009
UTC large
Height (km)
Speed (km/s)
/
Latitude / Longitude
Inclination (degrees)
Orbital Period (minutes)
Azimuth
Elevation
Range (km)
Doppler Factor

Next 0 passes for location: London (51.5072 / 0.1276)

Sorry there are no passes over London.